When you browse on this site, cookies collect data to enhance your experience and personalize the content and advertising you see.
Visit our Privacy Policy to learn more. By continuing to use the site, you agree to this use of cookies and data.
  • In Austria
  • List of Countries
  • For 7 days
  • Water Temperature
  • Weather Map
  • News
  • Weather Widgets
  • user-avatar
    Login

    Hourly Weather Sopo

    Today, 12 December, Thursday

    Time Temperature Precipitation Wind Pressure Humidity
    00:00 +11°C° 0.1 mm 0 mps 554 mmHg 94%
    01:00 +11°C° 0.1 mm 1 mps 554 mmHg 94%
    02:00 +11°C° 0 mm 1 mps 553 mmHg 94%
    03:00 +11°C° 0 mm 1 mps 553 mmHg 93%
    04:00 +11°C° 0 mm 1 mps 553 mmHg 93%
    05:00 +11°C° 0 mm 1 mps 554 mmHg 93%
    06:00 +11°C° 0 mm 0 mps 554 mmHg 93%
    07:00 +11°C° 0 mm 0 mps 555 mmHg 92%
    08:00 +14°C° 0.1 mm 1 mps 556 mmHg 86%
    09:00 +16°C° 0.1 mm 1 mps 557 mmHg 79%
    10:00 +19°C° 0.1 mm 1 mps 558 mmHg 72%
    11:00 +19°C° 1 mm 1 mps 558 mmHg 74%
    12:00 +19°C° 1 mm 1 mps 557 mmHg 76%
    13:00 +19°C° 1 mm 1 mps 556 mmHg 78%
    14:00 +19°C° 1.1 mm 1 mps 556 mmHg 80%
    15:00 +18°C° 1.1 mm 1 mps 555 mmHg 82%
    16:00 +18°C° 1.1 mm 1 mps 554 mmHg 85%
    17:00 +15°C° 0.3 mm 1 mps 554 mmHg 88%
    18:00 +13°C° 0.3 mm 1 mps 553 mmHg 91%
    19:00 +11°C° 0.3 mm 0 mps 553 mmHg 94%
    20:00 +10°C° 0 mm 0 mps 553 mmHg 93%
    21:00 +10°C° 0 mm 0 mps 553 mmHg 92%
    22:00 +10°C° 0 mm 0 mps 554 mmHg 91%
    23:00 +9°C° 0 mm 0 mps 553 mmHg 90%

    Tomorrow, 13 December, Friday

    Time Temperature Precipitation Wind Pressure Humidity
    00:00 +9°C° 0 mm 0 mps 553 mmHg 89%
    01:00 +9°C° 0 mm 0 mps 553 mmHg 89%
    02:00 +9°C° 0 mm 0 mps 553 mmHg 88%
    03:00 +9°C° 0 mm 0 mps 553 mmHg 88%
    04:00 +9°C° 0 mm 0 mps 552 mmHg 88%
    05:00 +10°C° 0 mm 0 mps 553 mmHg 87%
    06:00 +10°C° 0 mm 0 mps 554 mmHg 86%
    07:00 +11°C° 0 mm 0 mps 554 mmHg 85%
    08:00 +13°C° 0 mm 0 mps 556 mmHg 75%
    09:00 +16°C° 0 mm 0 mps 558 mmHg 65%
    10:00 +21°C° 0 mm 1 mps 559 mmHg 55%
    11:00 +20°C° 0.2 mm 1 mps 558 mmHg 60%
    12:00 +20°C° 0.2 mm 1 mps 557 mmHg 64%
    13:00 +19°C° 0.2 mm 2 mps 557 mmHg 69%
    14:00 +19°C° 1.1 mm 1 mps 556 mmHg 76%
    15:00 +18°C° 1.1 mm 1 mps 555 mmHg 83%
    16:00 +16°C° 1.1 mm 1 mps 554 mmHg 89%
    17:00 +15°C° 0.7 mm 1 mps 554 mmHg 91%
    18:00 +13°C° 0.7 mm 0 mps 554 mmHg 93%
    19:00 +12°C° 0.7 mm 0 mps 554 mmHg 95%
    20:00 +12°C° 0.3 mm 0 mps 554 mmHg 95%
    21:00 +11°C° 0.3 mm 0 mps 554 mmHg 95%
    22:00 +11°C° 0.3 mm 0 mps 555 mmHg 95%
    23:00 +11°C° 0.3 mm 0 mps 554 mmHg 95%

    Day after tomorrow, 14 December, Saturday

    Time Temperature Precipitation Wind Pressure Humidity
    00:00 +11°C° 0.3 mm 0 mps 554 mmHg 95%
    01:00 +11°C° 0.3 mm 0 mps 554 mmHg 94%
    02:00 +11°C° 1 mm 0 mps 554 mmHg 95%
    03:00 +12°C° 1 mm 1 mps 554 mmHg 95%
    04:00 +12°C° 1 mm 1 mps 554 mmHg 96%
    05:00 +12°C° 0.5 mm 1 mps 554 mmHg 95%
    06:00 +12°C° 0.5 mm 1 mps 555 mmHg 95%
    07:00 +11°C° 0.5 mm 0 mps 555 mmHg 94%
    08:00 +12°C° 0.2 mm 0 mps 556 mmHg 90%
    09:00 +13°C° 0.2 mm 0 mps 557 mmHg 86%
    10:00 +14°C° 0.2 mm 0 mps 557 mmHg 82%
    11:00 +15°C° 0.5 mm 0 mps 557 mmHg 82%
    12:00 +16°C° 0.5 mm 1 mps 557 mmHg 82%
    13:00 +18°C° 0.5 mm 1 mps 556 mmHg 82%
    14:00 +16°C° 1.3 mm 1 mps 556 mmHg 85%
    15:00 +16°C° 1.3 mm 1 mps 555 mmHg 88%
    16:00 +15°C° 1.3 mm 1 mps 554 mmHg 91%
    17:00 +15°C° 0.8 mm 1 mps 555 mmHg 92%
    18:00 +13°C° 0.8 mm 0 mps 555 mmHg 94%
    19:00 +12°C° 0.8 mm 0 mps 555 mmHg 96%
    20:00 +12°C° 0.5 mm 0 mps 555 mmHg 96%
    21:00 +12°C° 0.5 mm 0 mps 555 mmHg 96%
    22:00 +11°C° 0.5 mm 0 mps 556 mmHg 96%
    23:00 +11°C° 0.6 mm 0 mps 555 mmHg 96%

    15 December, Sunday

    Time Temperature Precipitation Wind Pressure Humidity
    00:00 +11°C° 0.6 mm 0 mps 555 mmHg 96%
    01:00 +11°C° 0.6 mm 0 mps 555 mmHg 96%
    02:00 +11°C° 0.3 mm 0 mps 555 mmHg 96%
    03:00 +11°C° 0.3 mm 0 mps 555 mmHg 96%
    04:00 +11°C° 0.3 mm 0 mps 555 mmHg 95%
    05:00 +11°C° 0.1 mm 0 mps 555 mmHg 95%
    06:00 +12°C° 0.1 mm 0 mps 556 mmHg 94%
    07:00 +12°C° 0.1 mm 0 mps 556 mmHg 94%
    08:00 +13°C° 0.5 mm 0 mps 557 mmHg 90%
    09:00 +15°C° 0.5 mm 0 mps 558 mmHg 87%
    10:00 +18°C° 0.5 mm 1 mps 559 mmHg 84%
    11:00 +18°C° 1.3 mm 1 mps 558 mmHg 85%
    12:00 +18°C° 1.3 mm 1 mps 557 mmHg 87%
    13:00 +18°C° 1.3 mm 1 mps 556 mmHg 88%
    14:00 +16°C° 1.5 mm 1 mps 556 mmHg 89%
    15:00 +16°C° 1.5 mm 1 mps 555 mmHg 89%
    16:00 +16°C° 1.5 mm 1 mps 555 mmHg 90%
    17:00 +15°C° 0.9 mm 1 mps 555 mmHg 92%
    18:00 +13°C° 0.9 mm 0 mps 555 mmHg 95%
    19:00 +12°C° 0.9 mm 0 mps 555 mmHg 97%
    20:00 +12°C° 1.7 mm 0 mps 555 mmHg 97%
    21:00 +12°C° 1.7 mm 0 mps 556 mmHg 97%
    22:00 +12°C° 1.7 mm 0 mps 556 mmHg 97%
    23:00 +12°C° 0.3 mm 0 mps 556 mmHg 96%

    16 December, Monday

    Time Temperature Precipitation Wind Pressure Humidity
    00:00 +12°C° 0.3 mm 0 mps 555 mmHg 96%
    01:00 +11°C° 0.3 mm 0 mps 555 mmHg 96%
    02:00 +11°C° 0.1 mm 0 mps 555 mmHg 96%
    03:00 +11°C° 0.1 mm 0 mps 554 mmHg 96%
    04:00 +11°C° 0.1 mm 0 mps 554 mmHg 96%
    05:00 +11°C° 0 mm 0 mps 555 mmHg 95%
    06:00 +11°C° 0 mm 0 mps 555 mmHg 94%
    07:00 +12°C° 0 mm 0 mps 556 mmHg 93%
    08:00 +13°C° 0.2 mm 0 mps 557 mmHg 87%
    09:00 +16°C° 0.2 mm 1 mps 558 mmHg 81%
    10:00 +19°C° 0.2 mm 1 mps 558 mmHg 75%
    11:00 +19°C° 1 mm 1 mps 558 mmHg 77%
    12:00 +19°C° 1 mm 1 mps 557 mmHg 78%
    13:00 +19°C° 1 mm 1 mps 557 mmHg 79%
    14:00 +19°C° 1.2 mm 1 mps 556 mmHg 80%
    15:00 +18°C° 1.2 mm 1 mps 555 mmHg 81%
    16:00 +18°C° 1.2 mm 1 mps 555 mmHg 82%
    17:00 +14°C° 0.5 mm 0 mps 554 mmHg 87%
    18:00 +13°C° 0.5 mm 0 mps 554 mmHg 91%
    19:00 +11°C° 0.5 mm 0 mps 553 mmHg 95%
    20:00 +11°C° 0.2 mm 0 mps 554 mmHg 95%
    21:00 +11°C° 0.2 mm 0 mps 554 mmHg 95%
    22:00 +12°C° 0.2 mm 1 mps 555 mmHg 94%
    23:00 +12°C° 0.2 mm 1 mps 554 mmHg 94%

    17 December, Tuesday

    Time Temperature Precipitation Wind Pressure Humidity
    00:00 +11°C° 0.2 mm 1 mps 554 mmHg 94%
    01:00 +11°C° 0.2 mm 1 mps 553 mmHg 94%
    02:00 +11°C° 0.2 mm 1 mps 553 mmHg 94%
    03:00 +10°C° 0.2 mm 1 mps 553 mmHg 94%
    04:00 +10°C° 0.2 mm 1 mps 552 mmHg 94%
    05:00 +11°C° 0.2 mm 1 mps 553 mmHg 92%
    06:00 +11°C° 0.2 mm 1 mps 554 mmHg 91%
    07:00 +12°C° 0.2 mm 1 mps 554 mmHg 89%
    08:00 +14°C° 0 mm 1 mps 555 mmHg 80%
    09:00 +16°C° 0 mm 1 mps 557 mmHg 70%
    10:00 +19°C° 0 mm 1 mps 558 mmHg 61%
    11:00 +20°C° 0.1 mm 1 mps 558 mmHg 58%
    12:00 +20°C° 0.1 mm 2 mps 557 mmHg 55%
    13:00 +21°C° 0.1 mm 2 mps 557 mmHg 51%
    14:00 +20°C° 0.3 mm 2 mps 556 mmHg 57%
    15:00 +19°C° 0.3 mm 2 mps 555 mmHg 62%
    16:00 +19°C° 0.3 mm 1 mps 554 mmHg 67%
    17:00 +16°C° 0.3 mm 1 mps 554 mmHg 76%
    18:00 +14°C° 0.3 mm 1 mps 553 mmHg 85%
    19:00 +12°C° 0.3 mm 1 mps 553 mmHg 94%
    20:00 +12°C° 0.2 mm 1 mps 553 mmHg 94%
    21:00 +12°C° 0.2 mm 1 mps 553 mmHg 94%
    22:00 +11°C° 0.2 mm 1 mps 553 mmHg 94%
    23:00 +11°C° 0.1 mm 1 mps 553 mmHg 93%
    Show more